Stations météo

Publicité
Tenerife/Los Rodeos, Espagne (60015): Température de l'air & dewpoint: 11.07.2018 05:00:00 - 17.07.2018 05:00:00 (WEST)Tenerife/Los Rodeos, Espagne (60015): Vitesse du vent: 11.07.2018 05:00:00 - 17.07.2018 05:00:00 (WEST)Tenerife/Los Rodeos, Espagne (60015): Direction du vent: 11.07.2018 05:00:00 - 17.07.2018 05:00:00 (WEST)Tenerife/Los Rodeos, Espagne (60015): reduced air pressure: 11.07.2018 05:00:00 - 17.07.2018 05:00:00 (WEST)Tenerife/Los Rodeos, Espagne (60015): visibility: 11.07.2018 05:00:00 - 17.07.2018 05:00:00 (WEST)
Date & Time tt [°C] td [°C] ff [km/h] ff [knt] dd ppp [hPa] vv [km]
17.07.2018 05:00:00 - - - - - - -
17.07.2018 04:00:00 16,4 14,9 34 18 WNW 1018,5 10
17.07.2018 03:00:00 16,4 15,3 37 20 WNW 1019,0 10
17.07.2018 02:00:00 16,4 15,1 35 19 NW 1019,6 10
17.07.2018 01:00:00 16,6 15,2 31 17 NW 1020,2 10
17.07.2018 00:00:00 16,4 15,3 35 19 NW 1020,3 10
16.07.2018 23:00:00 16,4 14,9 34 18 NW 1020,1 10
16.07.2018 22:00:00 16,4 15,1 34 18 NW 1020,1 10
16.07.2018 21:00:00 16,7 15,4 35 19 NW 1019,7 10
16.07.2018 20:00:00 17,2 15,7 39 21 NW 1019,4 10
16.07.2018 19:00:00 17,7 15,1 35 19 NW 1019,4 10
16.07.2018 18:00:00 18,5 15,5 35 19 NW 1019,5 10
16.07.2018 17:00:00 18,2 15,6 37 20 NW 1020,0 10
16.07.2018 16:00:00 19,1 15,0 35 19 NW 1020,0 10
16.07.2018 15:00:00 19,6 14,4 37 20 NW 1020,5 10
16.07.2018 14:00:00 19,1 13,9 37 20 WNW 1021,1 27
16.07.2018 13:00:00 20,4 13,5 39 21 NW 1020,7 10
16.07.2018 12:00:00 17,8 14,9 39 21 NW 1021,4 10
16.07.2018 11:00:00 18,7 13,6 37 20 NNW 1021,2 10
16.07.2018 10:00:00 17,8 14,5 29 16 NNW 1021,6 10
16.07.2018 09:00:00 16,8 15,3 31 17 NW 1021,6 10
16.07.2018 08:00:00 16,4 14,1 34 18 NW 1021,7 30
16.07.2018 07:00:00 16,3 14,4 29 16 NW 1021,8 10
16.07.2018 06:00:00 16,2 14,4 26 14 NW 1021,6 10
16.07.2018 05:00:00 16,3 14,5 29 16 NW 1021,7 10
16.07.2018 04:00:00 16,2 14,2 37 20 NW 1021,8 30
16.07.2018 03:00:00 16,3 14,1 26 14 WNW 1022,5 30
16.07.2018 02:00:00 16,5 14,3 22 12 NW 1022,9 10
16.07.2018 01:00:00 16,6 14,2 26 14 NW 1023,3 10
16.07.2018 00:00:00 16,6 14,1 26 14 NW 1023,3 10
15.07.2018 23:00:00 16,5 14,7 29 16 NW 1022,9 10
15.07.2018 22:00:00 16,6 14,2 28 15 NW 1022,4 10
15.07.2018 21:00:00 16,6 14,2 31 17 NW 1022,0 10
15.07.2018 20:00:00 17,3 14,0 35 19 WNW 1021,6 30
15.07.2018 19:00:00 19,2 13,7 31 17 NW 1021,1 10
15.07.2018 18:00:00 20,2 14,7 29 16 NW 1021,1 10
15.07.2018 17:00:00 20,1 15,1 26 14 NW 1021,3 10
15.07.2018 16:00:00 20,8 14,9 29 16 NW 1021,2 10
15.07.2018 15:00:00 21,6 14,6 24 13 NNW 1021,5 10
15.07.2018 14:00:00 20,5 14,1 28 15 NW 1022,3 10
15.07.2018 13:00:00 20,2 14,4 29 16 NW 1022,3 10
15.07.2018 12:00:00 18,9 14,0 29 16 NW 1022,5 10
15.07.2018 11:00:00 18,9 14,5 37 20 NW 1021,9 10
15.07.2018 10:00:00 17,7 15,1 37 20 NW 1021,9 10
15.07.2018 09:00:00 16,4 15,3 39 21 NW 1021,7 10
15.07.2018 08:00:00 15,8 14,8 31 17 NW 1021,8 10
15.07.2018 07:00:00 15,9 14,9 26 14 NW 1021,9 10
15.07.2018 06:00:00 15,9 14,8 21 11 NW 1021,8 10
15.07.2018 05:00:00 16,2 14,9 22 12 NW 1021,5 10
15.07.2018 04:00:00 16,0 14,4 21 11 NW 1021,8 10
15.07.2018 03:00:00 16,1 15,0 24 13 NW 1022,0 10
15.07.2018 02:00:00 16,0 14,7 26 14 WNW 1022,5 30
15.07.2018 01:00:00 16,2 14,6 22 12 NW 1023,0 10
15.07.2018 00:00:00 16,0 14,5 22 12 WNW 1023,3 30
14.07.2018 23:00:00 16,0 14,5 24 13 WNW 1022,9 10
14.07.2018 22:00:00 16,4 13,9 21 11 WNW 1022,5 10
14.07.2018 21:00:00 16,9 14,2 18 10 WNW 1022,2 10
14.07.2018 20:00:00 18,4 14,6 24 13 NW 1021,1 10
14.07.2018 19:00:00 19,4 15,2 22 12 WNW 1020,6 30
14.07.2018 18:00:00 20,4 15,1 24 13 WNW 1020,5 10
14.07.2018 17:00:00 21,2 14,3 34 18 NW 1019,9 10
14.07.2018 16:00:00 22,2 15,4 24 13 NW 1020,0 30
14.07.2018 15:00:00 21,4 14,3 26 14 NW 1020,4 10
14.07.2018 14:00:00 21,5 15,3 26 14 NW 1020,7 10
14.07.2018 13:00:00 20,8 14,0 22 12 WNW 1021,0 10
14.07.2018 12:00:00 20,4 14,2 24 13 WNW 1021,0 10
14.07.2018 11:00:00 19,6 14,2 22 12 NW 1021,0 10
14.07.2018 10:00:00 18,6 13,5 21 11 NW 1020,7 10
14.07.2018 09:00:00 17,4 14,3 21 11 NW 1020,8 10
14.07.2018 08:00:00 15,7 14,2 24 13 WNW 1020,7 30
14.07.2018 07:00:00 15,3 14,5 22 12 NW 1020,6 10
14.07.2018 06:00:00 15,7 14,6 22 12 NW 1020,3 10
14.07.2018 05:00:00 15,6 14,5 29 16 NW 1020,3 10
14.07.2018 04:00:00 15,8 14,7 28 15 WNW 1020,5 10
14.07.2018 03:00:00 15,8 14,7 22 12 NW 1020,9 10
14.07.2018 02:00:00 15,7 14,6 21 11 NW 1021,5 10
14.07.2018 01:00:00 15,7 14,6 21 11 NW 1021,9 10
14.07.2018 00:00:00 16,1 14,8 22 12 WNW 1021,6 30
13.07.2018 23:00:00 16,2 14,6 21 11 WNW 1021,2 10
13.07.2018 22:00:00 16,1 14,5 22 12 WNW 1020,5 10
13.07.2018 21:00:00 16,6 14,6 22 12 WNW 1020,0 10
13.07.2018 20:00:00 18,3 14,1 22 12 NW 1019,5 10
13.07.2018 19:00:00 20,1 12,2 22 12 NW 1018,5 10
13.07.2018 18:00:00 20,4 14,5 26 14 WNW 1018,5 10
13.07.2018 17:00:00 20,6 14,8 28 15 WNW 1018,5 10
13.07.2018 16:00:00 21,9 14,9 15 8 NNW 1018,6 10
13.07.2018 15:00:00 21,4 14,1 22 12 NW 1019,1 10
13.07.2018 14:00:00 19,9 14,1 24 13 NW 1020,0 10
13.07.2018 13:00:00 20,5 14,1 24 13 NW 1019,8 10
13.07.2018 12:00:00 20,3 13,5 28 15 NNW 1019,9 10
13.07.2018 11:00:00 19,9 14,0 28 15 NNW 1019,6 10
13.07.2018 10:00:00 18,2 15,0 26 14 WNW 1019,7 25
13.07.2018 09:00:00 16,8 14,7 26 14 NW 1020,1 10
13.07.2018 08:00:00 16,1 14,8 29 16 NW 1020,0 10
13.07.2018 07:00:00 16,0 14,7 26 14 NW 1019,7 10
13.07.2018 06:00:00 15,9 14,8 29 16 NW 1019,3 10
13.07.2018 05:00:00 15,9 14,8 26 14 NW 1019,6 10
13.07.2018 04:00:00 15,8 14,5 26 14 NW 1020,1 10
13.07.2018 03:00:00 15,9 14,6 26 14 NW 1020,4 10
13.07.2018 02:00:00 15,7 13,9 28 15 NW 1020,7 10
13.07.2018 01:00:00 15,9 14,1 22 12 NW 1021,0 10
13.07.2018 00:00:00 16,2 14,6 29 16 NW 1021,0 10
12.07.2018 23:00:00 16,2 14,9 34 18 NW 1020,7 10
12.07.2018 22:00:00 16,5 15,0 34 18 WNW 1020,3 10
12.07.2018 21:00:00 16,6 15,0 34 18 NW 1019,9 10
12.07.2018 20:00:00 17,3 14,4 31 17 NW 1019,6 10
12.07.2018 19:00:00 18,8 13,6 29 16 NW 1019,0 10
12.07.2018 18:00:00 19,3 14,6 35 19 NW 1019,2 10
12.07.2018 17:00:00 20,5 14,5 35 19 NW 1018,9 10
12.07.2018 16:00:00 20,7 13,6 35 19 NW 1019,2 30
12.07.2018 15:00:00 20,8 14,2 28 15 NW 1019,5 10
12.07.2018 14:00:00 20,8 16,3 31 17 NW 1019,9 10
12.07.2018 13:00:00 20,0 14,6 24 13 NW 1020,7 10
12.07.2018 12:00:00 19,8 14,4 22 12 NNW 1020,9 10
12.07.2018 11:00:00 18,0 15,1 28 15 NW 1021,1 10
12.07.2018 10:00:00 17,6 15,4 28 15 NW 1021,1 10
12.07.2018 09:00:00 16,9 14,4 29 16 NW 1021,1 10
12.07.2018 08:00:00 16,3 15,0 31 17 NW 1020,8 10
12.07.2018 07:00:00 16,2 15,4 42 23 WNW 1020,1 10
12.07.2018 06:00:00 16,5 15,7 39 21 WNW 1020,0 10
12.07.2018 05:00:00 16,3 15,5 29 16 NW 1020,5 10
12.07.2018 04:00:00 16,7 16,0 35 19 WNW 1020,4 11
12.07.2018 03:00:00 16,7 15,9 31 17 WNW 1020,8 10
12.07.2018 02:00:00 16,6 15,8 29 16 WNW 1021,2 10
12.07.2018 01:00:00 16,4 15,6 34 18 WNW 1021,7 10
12.07.2018 00:00:00 16,6 15,8 34 18 WNW 1022,1 10
11.07.2018 23:00:00 16,9 16,1 28 15 WNW 1021,8 10
11.07.2018 22:00:00 16,7 15,4 26 14 WNW 1021,2 10
11.07.2018 21:00:00 17,0 15,4 28 15 WNW 1021,0 10
11.07.2018 20:00:00 17,6 15,8 31 17 WNW 1020,5 10
11.07.2018 19:00:00 18,6 16,1 31 17 WNW 1020,1 10
11.07.2018 18:00:00 19,9 15,7 31 17 WNW 1019,8 10
11.07.2018 17:00:00 20,4 16,2 37 20 WNW 1019,5 10
11.07.2018 16:00:00 21,0 17,1 41 22 WNW 1019,3 10
11.07.2018 15:00:00 21,2 16,6 37 20 WNW 1019,5 10
11.07.2018 14:00:00 20,6 16,8 37 20 W 1019,9 10
11.07.2018 13:00:00 20,2 16,3 44 24 W 1020,2 20
11.07.2018 12:00:00 20,3 16,8 46 25 WNW 1019,9 10
11.07.2018 11:00:00 19,2 16,3 31 17 W 1020,9 10
11.07.2018 10:00:00 18,5 17,2 34 18 W 1020,5 10
11.07.2018 09:00:00 17,4 16,9 29 16 W 1020,6 9
11.07.2018 08:00:00 16,6 16,4 31 17 W 1020,7 0,5
11.07.2018 07:00:00 16,4 16,2 37 20 WNW 1020,3 7
11.07.2018 06:00:00 16,6 16,4 34 18 WNW 1019,9 0,5
11.07.2018 05:00:00 16,5 16,2 35 19 W 1019,8 2,1

tt = Température de l'air
td = dewpoint
ff = Vitesse du vent
dd = Direction du vent
ppp = reduced air pressure
vv = visibility

stations d'obs. à proximité